Theta_e
310 310 310 310 312 312 312 314 316 317 317 315 316 315 316 317 317 318 323 321 321 320 319 320 321 323 323 323 324 325 317 317 326 325 328 329 328 330 332 335 338 338 337 337 346
310 309 310 312 312 312 313 316 317 317 316 316 315 316 317 318 319 322 323 320 320 319 319 320 324 324 324 324 324 323 318 321 325 324 323 325 326 327 327 328 341 341 341 341 341
309 309 311 312 312 312 314 316 317 316 317 316 316 317 318 318 320 324 320 320 320 319 323 324 324 325 325 324 324 324 320 322 322 324 324 325 325 324 325 323 329 341 342 341 342
309 310 312 312 312 313 315 317 317 316 317 316 317 318 318 318 321 322 319 320 320 321 322 323 324 325 322 320 325 323 325 324 323 324 324 324 325 324 324 325 327 329 328 330 333
311 311 312 312 313 313 316 316 316 317 317 317 317 318 319 319 322 320 319 319 320 322 323 323 324 325 321 323 325 323 324 324 324 324 324 326 325 323 324 324 325 327 327 332 332
312 312 312 313 313 314 316 317 316 317 318 317 318 319 319 321 321 321 321 321 322 322 322 323 324 324 325 324 323 325 324 324 324 324 324 323 325 325 324 325 326 328 331 331 332
312 312 313 313 314 314 315 317 317 317 319 318 317 318 316 320 321 321 322 323 322 322 322 323 323 323 323 322 325 324 323 321 323 324 323 323 323 324 325 326 327 330 331 332 331
312 313 313 313 313 314 316 317 317 318 319 318 318 317 319 322 321 322 323 324 324 323 323 323 323 323 323 325 325 322 321 319 319 322 323 322 325 325 326 327 327 330 331 331 331
313 313 312 312 312 313 315 317 317 318 319 319 319 321 324 321 322 323 323 323 323 324 324 323 322 323 324 321 318 321 319 322 323 324 322 321 325 326 326 327 328 330 330 330 331
311 312 312 312 312 312 313 316 316 318 318 318 319 321 323 323 323 322 323 323 324 324 324 324 325 322 320 319 320 323 324 324 327 326 323 321 326 325 327 327 328 329 329 329 330
311 311 311 313 316 314 313 314 316 316 317 321 323 324 324 323 323 323 324 323 324 324 323 325 323 322 324 324 323 322 322 322 324 326 324 325 325 325 327 327 328 328 328 328 329
311 311 315 319 319 314 321 324 326 324 325 322 322 323 324 323 323 324 325 325 326 323 324 323 324 324 324 323 324 324 323 324 324 325 324 324 324 325 326 326 327 327 328 327 326
311 311 318 319 320 323 325 324 323 323 324 326 323 323 324 323 324 325 325 326 326 325 324 324 325 325 325 324 324 323 320 321 322 323 321 321 322 323 326 326 326 326 325 324 324
311 314 318 318 321 325 325 323 324 324 326 329 322 324 324 323 325 324 325 325 326 326 325 325 324 324 324 325 323 324 321 321 320 319 319 319 317 318 325 324 324 324 324 324 324
315 314 318 321 324 327 326 325 324 325 335 325 324 324 325 325 325 325 324 326 326 325 325 324 326 325 324 325 324 324 322 320 320 318 319 318 317 317 325 325 323 324 324 324 324
314 314 317 321 323 326 324 323 324 326 331 325 325 325 324 324 325 325 325 325 326 326 326 326 325 325 324 325 324 324 322 320 320 318 319 319 321 323 326 325 324 323 325 324 323
318 316 317 325 325 325 325 324 325 326 328 328 325 325 324 324 325 326 327 327 327 329 327 326 326 324 325 325 322 319 318 318 322 320 322 319 320 326 323 321 321 321 322 321 320
318 315 316 319 324 325 325 325 329 329 328 329 326 324 325 325 326 327 327 326 328 328 325 327 330 326 325 323 322 319 319 316 323 322 318 319 328 325 322 323 322 321 321 321 320
321 318 316 321 326 325 325 330 328 331 330 329 327 325 325 326 326 327 327 328 329 326 326 326 327 325 324 322 320 319 321 320 320 322 320 320 325 323 322 322 321 320 319 320 320
316 326 328 326 326 323 327 330 331 330 329 328 328 327 326 328 328 327 327 330 328 326 325 326 327 327 323 323 320 319 320 315 322 323 323 320 321 323 322 321 320 319 319 317 316
313 329 329 327 325 326 329 329 329 327 328 330 331 332 331 331 330 329 329 328 328 325 324 325 326 328 326 324 321 322 321 317 318 319 320 322 320 322 322 321 319 318 317 316 315
314 329 329 328 325 327 327 329 327 327 326 327 329 330 330 330 329 328 330 328 324 324 325 325 326 327 326 322 320 319 318 318 321 321 322 322 321 323 322 320 319 318 316 315 314
312 321 327 327 329 326 328 332 327 326 326 328 327 328 328 328 327 328 328 325 323 328 327 326 324 324 326 323 323 323 324 320 319 320 321 321 322 323 321 318 317 316 315 314 314
315 326 325 326 324 326 327 331 329 325 326 326 328 327 327 326 326 325 327 325 323 321 319 323 323 324 327 326 323 324 324 321 319 320 323 323 321 319 317 315 317 316 315 314 314
321 327 322 327 326 327 330 329 329 328 325 325 326 327 327 327 327 327 326 324 324 320 320 320 323 324 323 323 322 321 320 319 317 318 319 320 320 317 316 315 316 316 315 314 314
321 320 321 320 320 324 326 329 328 328 328 326 326 326 327 326 326 328 326 327 327 322 322 324 323 325 326 324 321 321 322 321 322 321 320 319 319 317 317 316 316 316 315 314 314
320 319 319 321 321 322 324 325 325 327 327 326 326 326 326 326 324 322 322 322 323 326 325 323 323 325 326 324 323 321 324 323 322 319 318 318 319 317 315 316 317 315 314 314 312
Wind_Speed
0 2 4 5 6 6 6 7 7 5 2 2 4 5 5 3 3 3 4 7 9 13 9 9 11 5 10 21 21 23 3 6 6 10 5 21 10 25 17 22 15 18 22 16 13
1 3 5 6 6 6 7 7 6 3 0 3 5 5 4 2 4 8 7 6 7 7 6 6 9 12 19 19 21 9 3 8 1 11 7 22 28 27 24 25 22 21 17 15 10
3 5 7 6 6 7 8 7 5 1 1 4 5 4 3 6 12 4 4 3 2 2 0 8 16 23 29 29 30 22 5 5 17 20 19 23 27 28 23 8 20 21 11 10 4
5 7 7 6 7 8 8 7 4 0 1 3 6 6 5 8 4 2 3 3 2 3 7 12 16 24 11 9 18 3 4 16 15 12 16 11 24 21 24 17 16 11 23 43 35
7 7 6 6 7 8 8 6 3 0 1 3 7 8 7 9 12 5 3 3 3 7 13 20 24 27 7 9 6 4 1 8 12 10 12 25 20 15 16 10 13 14 20 31 35
6 5 6 6 6 7 7 6 3 0 1 5 9 10 10 11 1 3 4 3 8 14 17 14 17 21 9 10 6 8 10 5 8 10 4 5 14 18 9 8 13 18 24 22 26
5 5 5 4 5 6 6 6 3 1 1 2 7 11 13 14 3 4 7 5 6 6 15 14 13 15 20 11 6 8 4 7 5 14 5 3 3 7 12 8 15 26 26 26 23
4 4 4 3 3 4 6 6 4 3 2 4 6 9 9 2 9 8 9 9 4 5 7 10 9 12 12 15 3 4 4 5 8 9 7 9 2 9 10 11 16 25 26 27 24
3 3 2 2 3 4 5 6 5 5 4 7 7 6 11 2 4 2 4 10 5 5 6 8 5 12 17 3 6 5 7 2 4 13 7 5 7 9 13 14 18 23 23 23 21
3 3 2 3 3 3 5 6 6 6 5 10 11 9 11 6 2 5 2 3 8 8 9 12 7 3 6 5 3 6 2 6 7 6 8 7 6 7 18 15 21 21 20 19 18
2 3 4 4 2 2 3 1 3 4 10 11 12 6 4 1 3 5 3 7 8 8 6 17 2 3 4 5 6 8 8 9 2 8 6 3 9 9 15 17 22 24 20 17 14
2 4 6 4 3 6 1 4 10 8 10 18 16 14 3 2 8 4 6 10 8 6 12 7 5 6 8 8 4 7 7 8 9 8 5 3 1 8 16 11 23 26 25 23 17
2 6 6 5 6 2 2 6 7 11 5 18 21 13 8 7 11 7 6 10 14 6 6 2 4 8 7 7 9 7 9 9 8 9 7 6 4 5 5 22 25 22 17 12 9
1 7 7 6 1 7 11 6 8 9 2 6 10 10 13 9 3 5 5 9 11 4 8 3 8 5 7 9 9 6 9 8 10 9 4 5 5 8 11 8 13 17 14 16 12
0 7 6 5 5 5 5 7 12 2 2 9 9 6 9 8 9 3 2 8 6 9 5 6 5 7 7 5 3 3 6 7 9 7 4 9 1 7 9 8 9 18 19 14 11
1 5 7 3 5 6 8 8 6 3 5 8 9 7 5 13 8 8 2 1 7 5 7 3 5 3 3 7 7 2 5 8 5 2 2 11 7 2 3 2 5 11 11 12 6
4 7 9 7 3 16 8 7 2 3 8 7 9 8 8 8 6 7 6 4 3 1 6 9 3 8 6 5 9 10 7 4 6 3 5 12 7 3 6 11 14 12 9 5 6
6 5 10 12 2 12 5 3 3 8 7 0 4 9 9 9 7 8 4 4 10 7 6 5 5 4 3 4 2 6 2 4 2 3 5 7 4 2 6 11 9 4 5 5 8
6 3 6 6 1 6 6 1 4 4 5 9 3 4 7 3 5 4 5 4 4 5 3 4 2 3 6 5 3 6 4 3 1 4 2 1 4 2 6 4 9 11 9 12 15
8 8 9 7 8 2 1 5 5 18 6 7 5 0 6 3 4 2 3 6 5 6 7 3 4 3 4 3 5 1 1 5 3 0 3 7 4 2 4 6 5 7 12 15 18
10 6 5 15 3 3 3 6 11 6 7 4 6 6 7 5 0 3 8 7 9 6 4 5 3 6 7 2 6 1 2 1 3 4 4 1 5 4 2 2 4 12 17 18 20
6 3 10 12 3 5 4 6 7 9 7 3 3 4 6 8 6 7 6 4 5 7 4 1 2 2 6 8 4 3 2 3 5 5 1 4 5 2 1 14 15 13 15 19 22
16 8 10 9 2 4 9 12 3 3 2 3 2 5 8 6 5 4 8 6 2 4 3 3 2 3 10 5 3 3 3 4 4 4 5 4 6 7 8 11 17 18 21 24 22
7 4 6 14 14 5 7 8 3 5 3 5 4 7 5 1 5 1 5 5 6 7 7 4 1 3 5 7 5 6 7 6 6 4 6 7 9 6 6 8 17 20 22 20 21
3 4 9 4 6 10 8 5 8 3 8 9 2 5 6 4 5 5 5 6 9 9 4 5 2 4 8 11 12 9 10 8 7 7 5 7 3 4 5 8 18 20 23 18 23
7 7 10 14 14 9 6 6 8 11 7 7 6 7 4 5 3 3 4 3 3 3 5 4 2 4 6 11 13 15 13 8 6 7 5 6 3 5 14 22 25 22 21 24 24
8 5 5 8 9 6 4 7 10 13 16 1 4 4 1 3 12 13 9 3 2 5 6 5 4 2 4 7 11 8 6 2 3 6 3 4 2 12 13 19 19 19 23 23 21
Wind_Direction
231 192 176 163 157 156 154 148 145 138 125 316 300 276 262 240 189 195 223 290 285 293 275 253 250 258 282 271 273 273 334 289 297 9 151 67 91 56 75 99 113 118 107 114 139
198 177 166 160 160 161 156 152 153 146 357 305 294 272 270 279 275 276 283 288 280 276 262 265 288 277 252 259 261 259 110 271 118 47 24 64 72 68 60 68 108 116 115 123 131
172 164 161 162 165 164 161 163 165 166 321 313 289 233 257 304 316 266 196 262 321 171 306 272 269 273 256 251 259 255 187 36 37 29 28 86 72 68 69 40 62 146 155 138 57
156 158 162 166 167 169 172 175 181 175 316 314 262 243 269 315 343 274 219 219 204 184 280 281 285 290 272 259 270 15 32 77 69 31 24 83 88 68 67 57 74 76 55 74 80
149 156 162 165 170 175 180 185 193 181 295 258 264 260 294 312 285 41 71 134 208 284 301 291 281 284 275 304 63 348 105 59 87 75 56 99 104 103 77 63 57 64 54 60 65
144 152 158 164 173 182 191 200 206 176 45 235 256 276 301 289 94 24 74 264 293 305 300 307 319 329 336 339 72 3 3 118 118 118 116 106 114 105 98 107 98 73 70 54 46
130 139 150 162 179 195 205 212 218 222 116 240 262 280 286 263 282 273 291 281 305 287 301 317 343 330 327 336 349 352 338 302 177 156 149 147 68 110 122 91 93 83 76 61 48
131 136 146 162 184 204 216 221 228 226 210 277 271 298 277 299 235 248 299 274 313 312 297 318 313 303 300 308 312 262 304 255 242 141 128 121 92 114 117 118 97 89 79 71 60
154 152 155 167 185 208 219 226 234 235 227 275 282 278 277 288 167 312 319 310 350 302 298 303 293 271 277 253 330 301 250 250 106 171 146 126 157 142 126 98 96 93 87 81 73
188 186 173 160 174 194 211 221 227 243 253 279 263 290 254 286 118 253 223 332 310 310 283 262 257 243 323 47 284 327 319 350 124 244 150 195 135 151 139 145 123 113 103 94 85
180 166 150 142 150 179 165 170 300 266 243 223 280 253 136 59 300 257 300 285 244 289 276 280 238 295 33 47 14 346 348 340 318 210 146 171 159 171 148 151 136 120 116 110 102
165 151 140 133 146 150 195 277 319 316 306 263 272 277 59 200 263 201 262 247 232 234 259 310 58 0 359 337 36 19 19 359 334 28 36 75 315 142 165 164 139 126 122 121 121
155 154 147 141 151 114 307 347 341 322 282 291 224 241 202 245 273 98 336 339 302 282 274 14 51 22 11 15 36 32 32 2 340 333 357 2 315 259 147 118 107 117 123 129 131
155 164 166 174 229 309 283 351 347 337 346 258 199 241 183 225 251 79 355 320 320 7 16 35 86 51 332 56 39 5 15 358 332 356 308 46 286 311 146 116 120 132 151 148 142
161 181 183 196 326 358 22 325 312 321 313 141 176 186 171 217 123 82 16 322 358 354 55 270 51 49 11 44 44 250 343 288 280 283 329 292 3 287 116 141 168 166 152 152 145
258 193 191 240 297 357 344 322 318 28 248 196 141 179 212 224 157 132 215 2 308 325 304 236 103 90 64 353 311 294 310 322 282 171 332 266 199 333 24 167 102 63 122 112 100
326 215 201 234 285 6 311 302 13 222 317 146 161 182 217 198 171 151 198 220 217 187 342 328 232 86 85 12 359 21 44 347 351 21 208 341 35 28 65 58 75 70 66 16 342
339 243 224 224 6 338 294 1 248 270 288 261 146 171 192 209 185 167 150 280 18 67 28 16 347 25 110 81 349 288 129 140 276 355 285 320 52 197 106 97 96 70 88 60 48
341 301 237 174 45 302 310 262 235 278 0 343 81 320 203 188 123 135 179 266 50 66 106 10 40 128 81 48 93 309 50 189 71 293 4 196 90 63 158 118 52 34 22 56 20
329 288 263 165 216 245 40 252 285 287 352 353 326 233 279 335 94 133 245 28 102 80 79 331 336 344 149 206 142 206 273 33 353 274 298 325 3 155 43 9 8 10 62 35 17
333 316 131 180 241 211 218 250 295 78 58 352 3 360 345 26 253 34 57 49 27 99 78 28 76 298 344 239 195 165 289 219 143 140 166 258 281 172 132 256 62 50 33 21 9
343 278 197 198 199 226 230 251 319 105 106 289 38 348 2 39 22 13 75 83 29 34 37 71 115 305 270 298 77 87 315 116 116 291 3 150 262 10 302 57 59 40 30 11 2
335 282 208 190 223 261 294 309 131 336 41 10 11 65 55 10 22 354 98 120 94 70 70 335 317 353 330 29 42 227 250 213 185 123 202 162 260 270 37 53 35 38 20 5 5
326 306 271 207 234 266 292 305 218 141 5 59 12 62 8 262 285 214 104 134 117 109 115 77 347 181 208 262 304 285 253 232 189 132 221 220 261 351 13 22 26 18 5 2 3
279 308 3 329 346 337 341 313 315 136 190 167 261 226 219 220 281 218 189 134 132 141 122 114 219 279 286 291 297 298 301 288 275 241 177 244 256 31 35 31 18 2 354 3 0
345 359 332 306 319 324 327 322 309 301 163 210 159 263 309 188 217 332 64 71 130 211 168 174 243 314 298 292 287 288 280 271 310 297 45 28 43 48 31 16 5 356 11 358 349
0 337 351 292 310 321 258 265 270 272 293 225 131 47 238 325 99 79 82 61 19 154 204 164 172 355 270 310 317 323 289 306 95 65 89 55 313 32 15 4 351 11 8 356 360